Kodiak, AK

7:11 PM AKST on February 23, 2017 (GMT -0900)
Kodiak

Weather History for PADQ - December, 2013

Change the Weather History Date:

Tuesday, December 3, 2013

  Actual Average Record
Temperature  
Mean Temperature 31 °F 32 °F  
Max Temperature 39 °F 37 °F 48 °F (1947)
Min Temperature 22 °F 27 °F 0 °F (1971)
Degree Days  
Heating Degree Days 34 33  
Month to date heating degree days 113 99  
Since 1 July heating degree days 2520 2894  
Cooling Degree Days 0 0  
Month to date cooling degree days 0 0  
Year to date cooling degree days 6 1  
Moisture  
Dew Point 31 °F    
Average Humidity 0    
Maximum Humidity 0    
Minimum Humidity 0    
Precipitation  
Precipitation 0.02 in 0.28 in 1.99 in (2008)
Month to date precipitation 0.02 0.82  
Year to date precipitation 61.03 70.09  
Snow  
Snow 0.00 in 0.40 in 6.70 in (1985)
Month to date snowfall 0.0 1.3  
Since 1 July snowfall 8.8  
Snow Depth 0.00 in    
Sea Level Pressure  
Sea Level Pressure 30.59 in    
Wind  
Wind Speed 5 mph (SE)    
Max Wind Speed 12 mph    
Max Gust Speed 20 mph    
Visibility 10 miles    
Events Rain    
T = Trace of Precipitation, MM = Missing Value Source: NWS Daily Summary

Daily Weather History Graph

Daily Weather History Graph

Search for Another Location

Airport or City:

Trip Planner

Search our weather history database for the weather conditions in past years. The results will help you decide how hot, cold, wet, or windy it might be!

Date:

Astronomy

Dec. 03, 2013 Rise Set
Actual Time 9:32 AM AKST 4:27 PM AKST
Civil Twilight 8:43 AM AKST 5:16 PM AKST
Nautical Twilight 7:52 AM AKST 6:07 PM AKST
Astronomical Twilight 7:04 AM AKST 6:54 PM AKST
Moon 10:06 AM AKST (12/3) 5:48 PM AKST (12/3)
Length of Visible Light 8h 33m
Length of Day
6h 54m
New Moon, 1% of the Moon is Illuminated
Dec 3
New Moon
Dec 9
First Quarter
Dec 17
Full
Dec 25
Last Quarter
Jan 1
New

Hourly Weather History & Observations

Time (AKST) Temp. Windchill Dew Point Humidity Pressure Visibility Wind Dir Wind Speed Gust Speed Precip Events Conditions
12:53 AM 23.0 °F - 19.9 °F 88% 30.69 in 10.0 mi Calm Calm - N/A   Partly Cloudy
1:53 AM 26.1 °F - 23.0 °F 88% 30.69 in 10.0 mi Calm Calm - N/A   Scattered Clouds
2:53 AM 26.6 °F - 24.8 °F 93% 30.67 in 10.0 mi Calm Calm - N/A   Mostly Cloudy
3:53 AM 27.0 °F - 24.1 °F 89% 30.68 in 10.0 mi Calm Calm - N/A   Mostly Cloudy
4:53 AM 32.0 °F - 27.0 °F 82% 30.67 in 10.0 mi Calm Calm - N/A   Mostly Cloudy
5:53 AM 35.1 °F 32.2 °F 27.0 °F 72% 30.66 in 10.0 mi SSW 3.5 mph - N/A   Overcast
6:53 AM 37.0 °F 33.3 °F 28.0 °F 70% 30.66 in 10.0 mi South 4.6 mph - N/A   Overcast
7:53 AM 37.9 °F 32.7 °F 28.9 °F 70% 30.64 in 10.0 mi SE 6.9 mph - N/A   Overcast
8:53 AM 36.0 °F 29.6 °F 30.0 °F 79% 30.64 in 10.0 mi South 8.1 mph - N/A   Overcast
9:53 AM 36.0 °F 30.3 °F 30.9 °F 82% 30.64 in 10.0 mi SE 6.9 mph - N/A   Overcast
10:53 AM 36.0 °F - 32.0 °F 86% 30.64 in 10.0 mi Calm Calm - N/A   Overcast
11:53 AM 37.9 °F 32.1 °F 32.0 °F 79% 30.63 in 10.0 mi East 8.1 mph - N/A   Overcast
12:53 PM 37.9 °F 32.1 °F 33.1 °F 83% 30.61 in 10.0 mi East 8.1 mph - N/A   Overcast
1:53 PM 39.0 °F 34.0 °F 33.1 °F 79% 30.59 in 10.0 mi ESE 6.9 mph - 0.00 in   Overcast
2:53 PM 39.0 °F - 33.1 °F 79% 30.57 in 10.0 mi Calm Calm - N/A   Overcast
3:53 PM 39.0 °F 33.4 °F 34.0 °F 82% 30.55 in 10.0 mi SE 8.1 mph - 0.00 in Rain Light Rain
4:53 PM 37.9 °F 32.7 °F 34.0 °F 86% 30.53 in 10.0 mi ESE 6.9 mph - 0.01 in Rain Light Rain
5:53 PM 37.9 °F 31.5 °F 34.0 °F 86% 30.52 in 10.0 mi SE 9.2 mph - 0.00 in   Overcast
6:53 PM 39.0 °F 31.8 °F 34.0 °F 82% 30.51 in 10.0 mi ESE 11.5 mph - 0.00 in   Overcast
7:53 PM 37.9 °F 31.5 °F 35.1 °F 89% 30.51 in 10.0 mi ESE 9.2 mph - 0.00 in   Overcast
8:36 PM 39.2 °F 32.5 °F 35.6 °F 87% 30.50 in 10.0 mi SE 10.4 mph - 0.00 in Rain Light Rain
8:53 PM 39.0 °F 33.4 °F 35.1 °F 86% 30.50 in 10.0 mi SSE 8.1 mph - 0.01 in   Overcast
9:53 PM 39.0 °F 34.0 °F 35.1 °F 86% 30.48 in 10.0 mi SE 6.9 mph - 0.00 in Rain Light Rain
10:53 PM 39.0 °F 34.0 °F 36.0 °F 89% 30.48 in 9.0 mi SE 6.9 mph - 0.00 in   Overcast
11:53 PM 37.9 °F - 36.0 °F 93% 30.46 in 10.0 mi Calm Calm - N/A   Overcast